Regional Weather Roundup
Issued by NWS

Home | Current Version | Previous Version | Graphics & Text | Print | Product List | Glossary On
Versions: 1 2 3 4 5 6 7 8 9 10 11 12 13 14 15 16 17 18 19 20 21 22 23 24 25 26 27 28 29 30 31 32 33 34 35 36 37 38 39 40 41 42 43 44 45 46 47 48 49 50
000
ASUS43 KLOT 050708
RWRIL

ILLINOIS REGIONAL WEATHER ROUNDUP
NATIONAL WEATHER SERVICE CHICAGO/ROMEOVILLE IL
200 AM CDT WED AUG 05 2015

NOTE: "FAIR" INDICATES FEW OR NO CLOUDS BELOW 12,000 FEET WITH NO
SIGNIFICANT WEATHER AND/OR OBSTRUCTIONS TO VISIBILITY.

* THESE STATIONS ARE NOT UNDER NWS QUALITY CONTROL. THEY ALSO MAY NOT
  REPORT WEATHER SUCH AS PRECIPITATION OR FOG.

ILZ001-002-007-009-015-016-024-050800-
NORTHWEST ILLINOIS

CITY           SKY/WX    TMP DP  RH WIND       PRES   REMARKS
MOLINE         PTCLDY    64  61  90 CALM      30.03S
STERLING*      CLEAR     61  55  82 CALM      30.01S
SAVANNA*       PTCLDY    61  58  92 CALM      30.04S
$$

ILZ003-004-008-010-011-017-018-050800-
NORTH CENTRAL ILLINOIS

CITY           SKY/WX    TMP DP  RH WIND       PRES   REMARKS
ROCKFORD       MOCLDY    59  55  87 S3        30.05S
FREEPORT*      CLEAR     55  53  93 CALM      30.05F
ROCHELLE*      CLEAR     57  55  91 CALM      30.04F
DE KALB*       CLEAR     61  55  80 CALM      30.05F
PERU*          CLEAR     64  59  83 CALM      30.04F
$$

ILZ005-006-012>014-019>023-050800-
NORTHEAST ILLINOIS

CITY           SKY/WX    TMP DP  RH WIND       PRES   REMARKS
CHICAGO-OHARE  PTCLDY    65  58  78 CALM      30.03S
CHICAGO-MIDWAY MOCLDY    71  61  70 S5        30.02F
AURORA         CLEAR     56  53  90 NW3       30.05S
LANSING*       CLEAR     59  58  95 CALM      30.03F
JOLIET*        CLEAR     59  58  96 CALM      30.03F
WAUKEGAN       CLEAR     63  58  83 W3        30.03S
DUPAGE AIRPORT CLEAR     61  56  83 CALM      30.03F
KANKAKEE*      CLEAR     62  59  91 CALM      30.04F
WHEELING       CLEAR     63  57  81 CALM      30.04F
MORRIS*        CLEAR     61  58  88 CALM      30.02F
ROMEOVILLE*    CLEAR     62  55  80 CALM      30.04S
NORTHERLY ISL    N/A     70  59  68 SW5         N/A
$$

LMZ740>746-050800-
SOUTHERN LAKE MICHIGAN

STATION/POSITION SKY/WX   TEMP    WIND        PRES    VSBY  WAVE
                          AIR SEA DIR/SP/G                  HT/PER
                          (F)     (DEG/KT/KT) (MB)    (MI)  (FT/S)
HARRISON CRIB              71     170/  6/  7   N/A
BURNHAM HARBOR             71     240/  3/  4   N/A
CALUMET HARBOR             71     180/  2/  4   N/A
BURNS HARBOR               69     160/  4/  6 1017.3F
MICHIGAN CITY              69     140/  7/  8   N/A
MICHIGAN CITY 6N           71 73  200/  6/  8   N/A           1
ST. JOSEPH                 71 74  230/  6/  6   N/A           0
$$

ILZ025>027-034>036-040-047-049-050-058-095>099-050800-
WEST-CENTRAL ILLINOIS

CITY           SKY/WX    TMP DP  RH WIND       PRES   REMARKS
QUINCY         PTCLDY    69  64  84 SE5       30.01F
GALESBURG*     PTCLDY    62  61  97 CALM      30.03F
MACOMB*        PTCLDY    63  62  97 CALM      30.05S
JACKSONVILLE*  CLOUDY    69  65  87 E3        30.02F
PITTSFIELD*    MOCLDY    70  66  88 E3        30.03S
$$

ILZ028>032-037-038-041>044-048-051>054-059>061-050800-
CENTRAL ILLINOIS

CITY           SKY/WX    TMP DP  RH WIND       PRES   REMARKS
PONTIAC        CLEAR     62  61  97 CALM      30.03F
BLOOMINGTON    PTCLDY    67  63  87 CALM      30.04F
DECATUR        MOCLDY    67  63  87 CALM      30.03F
PEORIA         CLEAR     67  62  84 CALM      30.03F
LACON*         CLEAR     63  60  93 CALM      30.02S
LINCOLN*       MOCLDY    69  65  85 CALM      30.03R
SPRINGFIELD    MOCLDY    68  64  87 N3        30.03F
TAYLORVILLE    MOCLDY    63  63 100 CALM      30.03S
$$

ILZ033-039-045-046-055>057-062-063-050800-
EAST-CENTRAL ILLINOIS

CITY           SKY/WX    TMP DP  RH WIND       PRES   REMARKS
CHAMPAIGN      MOCLDY    66  61  84 E3        30.03F
DANVILLE*      PTCLDY    62  60  94 N5        30.01S
RANTOUL*       PTCLDY    70  63  79 CALM      30.03F
MATTOON        MOCLDY    66  62  87 N5        30.02F
PARIS*         MOCLDY    62  61  97 CALM      30.05S
$$

ILZ079-100>102-050800-
SOUTHWEST ILLINOIS

CITY           SKY/WX    TMP DP  RH WIND       PRES   REMARKS
ALTON          MOCLDY    70  67  89 E5        30.01F
BELLEVILLE     MOCLDY    73  73 100 N6        29.99S
CAHOKIA*       MOCLDY    76  70  82 NE7       29.99F
SPARTA*        PTCLDY    71  69  94 CALM      30.00F
$$

ILZ064>066-069>071-074>076-080>082-084>086-088>090-092>094-050800-
SOUTH-CENTRAL ILLINOIS

CITY           SKY/WX    TMP DP  RH WIND       PRES   REMARKS
CARBONDALE     MOCLDY    72  69  90 E3        29.98F
CAIRO*         CLOUDY    75  73  92 CALM      29.97F
EFFINGHAM*     MOCLDY    67  65  91 CALM      30.04F
MARION         CLOUDY    72  70  94 N3        29.99F
MT. VERNON     MOCLDY    70  64  83 N3        30.00F
CENTRALIA*     MOCLDY    70  66  88 NE5       30.00F
SALEM*         MOCLDY    72  69  90 NE3       30.01
METROPOLIS*    CLOUDY    73  73 100 CALM      29.99F
$$

ILZ067-068-072-073-078-083-087-091-050800-
SOUTHEAST ILLINOIS

CITY           SKY/WX    TMP DP  RH WIND       PRES   REMARKS
LAWRENCEVILLE  PTCLDY    69  66  90 CALM      30.03S
FLORA*         PTCLDY    69  68  97 NE6       30.02F
FAIRFIELD*     MOCLDY    69  69  99 NE3       30.00S FOG
HARRISBURG*    CLOUDY    71  71 100 NE3       30.00F
ROBINSON*      MOCLDY    66  65  97 CALM      30.03F
CARMI*         CLOUDY    69  65  86 NE3       29.99F FOG
$$

ABBREVIATIONS USED IN REMARKS
   TC - TEMPERATURE IN CELSIUS
  WCI - WIND CHILL INDEX
   HX - HEAT INDEX
  VSB - VISIBILITY
$$



USA.gov is the U.S. government's official web portal to all federal, state and local government web resources and services.